This is the latest recevied weather packets stored in our database for station/object WK7G. If no packets are shown the sender has not sent any weather packets the latest 10 day(s).
| Time | Temp. | Humidity | Pressure | Rain* | Wind** | Luminosity | Snow |
|---|---|---|---|---|---|---|---|
| 1778034667 | 5.56° C | 44% | 1006.2 hPa | 0 mm | - | 1 W/m² | - |
| 1778034364 | 6.11° C | 44% | 1005.8 hPa | 0 mm | - | 3 W/m² | - |
| 1778034062 | 6.11° C | 44% | 1005.7 hPa | 0 mm | - | 6 W/m² | - |
| 1778033759 | 6.67° C | 43% | 1005.6 hPa | 0 mm | - | 12 W/m² | - |
| 1778033456 | 6.67° C | 43% | 1005.2 hPa | 0 mm | - | 20 W/m² | - |
| 1778033153 | 7.78° C | 41% | 1004.9 hPa | 0 mm | - | 23 W/m² | - |
| 1778032851 | 7.78° C | 41% | 1005 hPa | 0 mm | - | 23 W/m² | - |
| 1778032548 | 7.78° C | 40% | 1004.8 hPa | 0 mm | - | 27 W/m² | - |
| 1778032245 | 7.78° C | 40% | 1005 hPa | 0 mm | - | 29 W/m² | - |
| 1778031942 | 8.33° C | 40% | 1004.9 hPa | 0 mm | - | 29 W/m² | - |
| 1778031638 | 8.33° C | 39% | 1004.5 hPa | 0 mm | - | 33 W/m² | - |
| 1778031336 | 8.89° C | 40% | 1004.8 hPa | 0 mm | - | 45 W/m² | - |
| 1778031032 | 8.89° C | 40% | 1004.5 hPa | 0 mm | - | 54 W/m² | - |
| 1778030729 | 8.89° C | 40% | 1004.5 hPa | 0 mm | - | 85 W/m² | - |
| 1778030426 | 8.89° C | 40% | 1004.3 hPa | 0 mm | - | 73 W/m² | - |
| 1778030124 | 8.89° C | 41% | 1004.4 hPa | 0 mm | - | 121 W/m² | - |
| 1778029820 | 9.44° C | 41% | 1004.2 hPa | 0 mm | - | 56 W/m² | - |
| 1778029519 | 9.44° C | 41% | 1004.2 hPa | 0 mm | - | 95 W/m² | - |
| 1778029215 | 9.44° C | 40% | 1004.3 hPa | 0 mm | - | 151 W/m² | - |
| 1778028913 | 9.44° C | 41% | 1003.8 hPa | 0 mm | - | 163 W/m² | - |
| 1778028608 | 10° C | 40% | 1003.6 hPa | 0 mm | - | 164 W/m² | - |
| 1778028306 | 10° C | 39% | 1003.8 hPa | 0 mm | - | 199 W/m² | - |
| 1778028002 | 10° C | 41% | 1003.7 hPa | 0 mm | - | 96 W/m² | - |
| 1778027698 | 10.56° C | 39% | 1003.9 hPa | 0 mm | - | 238 W/m² | - |
| 1778027394 | 10.56° C | 38% | 1003.8 hPa | 0 mm | - | 86 W/m² | - |
* Rain latest hour (hover to see other rain measurements)
** Current wind speed in m/s (hover to see current wind gust speed)